Home > Weather > Germany > Germering > Past weeks

Flag for Germany Weather past 2 weeks in Germering, Bavaria, Germany

43 °F

Passing clouds.

Feels Like: 38 °F
Forecast: 30 / 47 °F
Wind: 8 mph from Southwest

Location: Landsberg

Current Time: Dec 2, 2015 at 3:47:33 AM

Latest Report: Dec 2, 2015 at 2:20 AM

Visibility: N/A

Pressure: 30.42 "Hg (28.48 "Hg at 538m altitude)

Humidity: 81%

Dew point: 37 °F

Location of GermeringLocation

Historic Weather in Germering — Graph


Germering temperature yesterday

Maximum temperature yesterday: 48 °F (at 12:20 AM)
Minimum temperature yesterday: 45 °F (at 3:20 AM)
Average temperature yesterday: 46 °F

Past Weeks' High & Low Weather Summary

High59 °F (Nov 18, 12:20 AM)100% (Nov 20, 2:20 PM)30.42 "Hg (Nov 20, 2:20 PM)
Low19 °F (Nov 24, 5:20 AM)51% (Nov 18, 12:20 PM)29.39 "Hg (Nov 21, 2:20 PM)
Average40 °F81%29.98 "Hg
* Reported Nov 17 2:20 AM — Dec 2 2:20 AM, Germering, Weather by CustomWeather, © 2015

Note: Actual official high and low records may vary slightly from our data, if they occured in-between our weather recording intervals... More about our weather records


Germering weather history for previous 24 hours

Time TempWeatherWind HumidityBarometerVisibility
2:20 AM
Wed, Dec 2
43 °FPassing clouds.8 mph81%30.42 "HgN/A
1:20 AM45 °FPassing clouds.10 mph81%30.39 "HgN/A
12:20 AM46 °FPassing clouds.12 mph76%30.42 "HgN/A
11:20 PM
Tue, Dec 1
46 °FPassing clouds.12 mph76%30.42 "HgN/A
10:20 PM46 °FPartly cloudy.13 mph76%30.42 "HgN/A
9:20 PM46 °FPassing clouds.16 mph76%30.39 "HgN/A
8:20 PM46 °FOvercast.17 mph76%30.39 "HgN/A
7:20 PM46 °FPassing clouds.20 mph82%30.39 "HgN/A
6:20 PM46 °FOvercast.18 mph82%30.39 "HgN/A
5:20 PM46 °FPassing clouds.17 mph82%30.36 "HgN/A
4:20 PM46 °FOvercast.20 mph82%30.36 "HgN/A
3:20 PM46 °FBroken clouds.21 mph82%30.33 "HgN/A
2:20 PM46 °FDrizzle. More clouds than sun.22 mph82%30.33 "Hg5 mi
2:03 PM46 °FLight rain. More clouds than sun.24 mph82%30.33 "HgN/A
1:20 PM45 °FDrizzle. Mostly cloudy.22 mph87%30.33 "Hg5 mi
12:20 PM45 °FLight rain. Mostly cloudy.23 mph87%30.33 "HgN/A
11:20 AM45 °FLight rain. Mostly cloudy.23 mph87%30.33 "HgN/A
11:00 AM45 °FLight rain. Mostly cloudy.26 mph87%30.33 "HgN/A
10:20 AM45 °FLight rain. Mostly cloudy.26 mph87%30.30 "HgN/A
9:20 AM45 °FLight rain. Mostly cloudy.25 mph87%30.30 "Hg5 mi
7:20 AM45 °FLight rain. Partly cloudy.26 mph87%30.27 "HgN/A
6:20 AM45 °FLight rain. Partly cloudy.31 mph87%30.24 "HgN/A
5:20 AM45 °FRain. Passing clouds.29 mph81%30.24 "Hg5 mi
4:20 AM45 °FRain. Mostly cloudy.31 mph81%30.21 "Hg5 mi
3:20 AM45 °FRain. Mostly cloudy.31 mph81%30.21 "Hg5 mi
Weather by CustomWeather, © 2015

See weather overviewHow to use our weather pages